SCP
-0 0 -0 -0 0 0 -0 -0 -0 0 -0 -0 -0 -0 -0 -0 -0 -0 -0 -0 -0 -0 -0 -0 -0 -0 -0 -0 -0 -0 -0 -0 -0 -0 -0 -0 -0 -0 -0 -0 -0 -0 -0
-0 -0 -0 -0 -0 -0 -0 -0 -0 0 -0 -0 -0 -0 -0 -0 -0 -0 -0 -0 -0 -0 -0 -0 -0 -0 -0 -0 -0 -0 -0 -0 -0 -0 -0 -0 -0 -0 -0 -0 -0 -0 -0
0 0 0 0 0 -0 -0 -0 0 0 -0 -0 -0 -0 -0 -0 -0 -0 -0 -0 -0 -0 -0 -0 -0 -0 -0 -0 -0 -0 -0 -0 -0 -0 -0 0 0 -0 -0 -0 -0 -0 -0
0 0 0 0 -0 -0 -0 -0 0 0 -0 -0 -0 -0 -0 -0 -0 -0 -0 -0 -0 -0 -0 -0 -0 -0 -0 -0 -0 -0 -0 -0 -0 -0 -0 0 0 -0 -0 -0 -0 -0 -0
0 0 0 0 -0 -0 -0 -0 0 0 -0 -0 -0 -0 -0 -0 -0 -0 -0 -0 -0 -0 -0 -0 -0 0 0 0 0 0 0 -0 -0 -0 -0 0 -0 -0 -0 -0 -0 -0 -0
0 0 0 0 0 -0 -0 -0 0 0 -0 -0 -0 -0 -0 -0 -0 -0 -0 -0 -0 -0 -0 -0 -0 0 0 0 0 0 -0 -0 -0 -0 -0 0 -0 -0 -0 -0 -0 -0 0
0 0 0 0 0 -0 -0 -0 0 0 -0 -0 -0 -0 -0 -0 -0 -0 -0 -0 -0 -0 -0 -0 -0 0 0 0 0 0 -0 -0 -0 -0 -0 0 -0 -0 -0 -0 -0 -0 -0
0 0 0 0 0 -0 -0 -0 0 -0 -0 -0 -0 -0 -0 -0 -0 -0 -0 -0 -0 -0 -0 -0 -0 -0 0 0 0 0 -0 -0 0 -0 0 0 -0 -0 -0 -0 -0 -0 -0
0 0 0 0 0 0 -0 -0 -0 -0 -0 -0 -0 -0 -0 -0 -0 -0 -0 -0 -0 -0 -0 -0 -0 -0 -0 0 -0 -0 0 0 -0 0 0 0 -0 -0 0 0 0 0 0
0 0 0 0 0 0 0 -0 -0 -0 -0 -0 -0 0 -0 0 -0 -0 -0 -0 -0 -0 -0 -0 -0 -0 -0 -0 -0 -0 -0 -0 0 -0 0 0 0 0 0 0 0 0 0
0 0 0 0 0 0 0 -0 -0 -0 -0 -0 0 0 0 0 0 0 -0 -0 -0 -0 -0 -0 -0 -0 -0 0 0 0 -0 0 -0 -0 0 -0 0 0 0 0 0 0 0
0 0 0 0 0 0 0 -0 -0 0 -0 0 0 0 0 0 0 0 0 0 0 0 0 0 0 0 0 0 -0 0 0 0 0 -0 0 -0 -0 0 0 0 0 0 0
0 0 0 0 0 0 0 0 -0 -0 0 0 0 0 0 0 0 0 0 0 0 0 0 0 0 0 0 0 0 0 0 0 0 0 0 0 -0 0 0 0 0 0 0
0 0 0 0 0 0 0 0 -0 -0 0 0 0 0 0 0 0 0 0 0 0 0 0 0 0 0 0 0 0 0 0 0 0 0 0 0 0 0 0 0 0 0 0
0 0 0 0 0 0 0 0 0 -0 0 0 0 0 0 0 0 0 0 0 0 0 0 0 0 0 0 0 0 0 0 0 0 0 0 0 0 0 0 0 0 0 0
0 0 0 0 0 0 0 0 0 -0 0 0 0 0 0 0 0 0 0 0 0 0 0 0 0 0 0 0 0 0 0 0 0 0 0 0 0 0 0 0 0 0 0
0 0 0 0 0 0 0 0 0 0 0 0 0 0 0 0 0 0 0 0 0 0 0 0 0 0 0 0 0 0 0 0 0 0 0 0 0 0 0 0 0 0 0
0 0 0 0 0 0 0 0 0 0 0 0 0 0 0 0 0 0 0 0 0 0 0 0 0 0 0 0 0 0 0 0 0 0 0 0 0 0 0 0 0 0 0
0 0 0 0 0 0 0 0 0 0 0 0 0 0 0 0 0 0 0 0 0 0 0 0 0 0 0 0 0 0 0 0 0 0 0 0 0 0 0 0 0 0 0
0 0 0 0 0 0 0 0 0 0 0 0 0 0 0 0 0 0 0 0 0 0 0 0 0 0 0 0 0 0 0 0 0 0 0 0 0 0 0 0 0 0 0
0 0 0 0 0 0 0 0 0 0 0 0 0 0 0 0 0 0 0 0 0 0 0 0 0 0 0 0 0 0 0 0 0 0 0 0 0 0 0 0 0 0 0
0 0 0 0 0 0 0 0 0 0 0 0 0 0 0 0 0 0 0 0 0 0 0 0 0 0 0 0 0 0 0 0 0 0 0 0 0 0 0 0 0 0 0
0 0 0 0 0 0 0 0 0 0 0 0 0 0 0 0 0 0 0 0 0 0 0 0 0 0 0 0 0 0 0 0 0 0 0 0 0 0 0 0 0 0 0
0 0 0 0 0 0 0 0 0 0 0 0 0 0 0 0 0 0 0 0 0 0 0 0 0 0 0 0 0 0 0 0 0 0 0 0 0 0 0 0 0 0 0
0 0 0 0 0 0 0 0 0 0 0 0 0 0 0 0 0 0 0 0 0 0 0 0 0 0 0 0 0 0 0 0 0 0 0 0 0 0 0 0 0 0 0
0 0 0 0 0 0 0 0 0 0 0 0 0 0 0 0 0 0 0 0 0 0 0 0 0 0 0 0 0 0 0 0 0 0 0 0 0 0 0 0 0 0 0
Wind_Speed_500mb
18 35 30 33 26 23 23 25 14 13 16 18 34 38 30 30 34 34 34 33 34 34 35 35 36 36 37 37 41 40 45 42 46 42 47 41 43 43 42 43 43 39 40
24 34 36 30 23 29 37 21 10 14 17 24 37 32 32 29 31 35 34 33 34 35 35 35 36 37 37 40 40 49 46 40 40 33 38 40 42 36 42 36 40 39 40
28 34 41 30 27 37 25 13 5 15 15 33 33 31 28 30 32 33 34 32 33 35 35 36 36 37 38 39 43 39 39 42 30 35 40 42 42 39 38 41 39 39 41
31 34 38 29 26 37 22 13 10 15 18 33 31 30 32 29 29 31 31 31 32 34 35 35 36 36 38 38 39 46 43 38 38 39 40 41 40 37 37 40 40 38 43
34 36 37 29 40 29 20 12 11 7 19 30 31 31 27 30 29 31 30 31 33 34 34 35 35 36 37 38 37 42 39 33 35 32 40 40 40 40 38 38 36 39 40
35 40 42 33 38 28 19 11 7 4 20 28 27 27 28 28 30 29 30 31 32 33 34 35 36 36 37 39 40 47 47 36 31 30 37 41 41 34 36 36 37 38 46
35 34 53 40 30 23 19 11 1 5 30 28 29 27 27 26 29 27 30 30 31 32 33 34 35 36 35 37 35 37 47 36 25 26 41 40 41 33 35 34 35 38 42
34 38 52 43 30 25 18 10 7 9 29 28 28 28 27 25 27 27 28 28 28 29 31 32 33 34 35 35 34 33 37 32 27 23 38 41 38 33 31 33 36 36 39
26 34 48 42 33 24 20 11 6 3 30 30 30 30 30 26 26 25 25 25 26 26 27 29 30 32 33 34 33 30 29 30 23 26 41 43 32 28 32 35 32 35 37
44 36 50 50 38 30 26 18 9 3 25 28 28 27 24 23 24 23 21 22 22 23 24 26 27 28 29 30 30 26 29 28 25 27 34 42 29 30 29 31 31 34 35
40 31 46 54 47 35 30 25 17 13 13 27 26 28 27 21 19 18 20 18 19 19 20 20 21 22 25 25 27 25 27 27 28 26 26 39 24 28 27 28 28 29 28
45 40 36 58 56 37 37 30 24 19 20 25 28 29 24 22 16 17 17 16 15 16 15 15 15 16 19 20 21 22 22 24 25 24 21 27 23 21 23 23 26 23 25
45 47 41 46 57 49 40 36 26 25 20 26 32 29 26 22 19 18 18 15 13 12 11 10 10 11 12 14 15 16 18 19 20 19 19 19 21 19 17 19 21 22 22
43 47 45 41 44 48 40 40 29 25 23 31 30 29 25 26 22 19 17 15 13 10 9 7 6 5 6 7 9 11 13 15 16 16 16 16 16 16 13 13 13 16 18
43 48 52 47 42 46 45 45 34 29 26 31 33 30 29 27 25 22 18 17 14 13 11 8 6 4 1 2 4 7 9 11 12 12 12 13 12 13 13 13 10 11 12
48 50 53 55 51 48 52 46 36 32 30 35 34 34 33 31 28 26 22 21 19 18 16 13 12 10 9 8 8 8 9 9 11 12 11 11 10 10 10 11 10 9 7
50 50 51 51 49 50 51 49 43 40 34 36 36 36 37 34 30 28 27 25 24 23 21 19 19 18 17 16 15 14 15 15 15 15 16 15 14 13 11 11 10 10 10
48 50 51 50 50 50 50 47 45 48 39 35 39 38 38 37 34 32 31 30 29 27 27 26 25 25 25 23 23 21 21 22 22 22 22 22 20 18 17 15 14 13 13
48 48 49 49 48 48 49 54 52 50 44 40 39 40 39 39 38 36 35 34 34 32 32 31 31 30 31 30 29 30 28 28 29 30 29 28 26 25 23 21 20 19 18
50 51 50 50 48 48 49 55 54 52 46 44 43 42 41 42 41 39 40 39 38 37 36 35 35 34 34 35 35 36 36 35 36 36 35 35 32 30 29 27 26 24 25
53 54 55 55 54 53 55 56 58 53 46 47 46 44 43 42 42 42 43 43 42 40 38 38 38 39 39 36 39 39 39 36 36 32 30 33 30 31 33 32 31 31 29
59 57 55 55 54 54 53 51 52 47 44 44 45 47 46 45 43 42 43 45 45 42 42 42 42 41 42 40 36 35 26 31 34 26 22 24 31 32 34 35 35 35 35
65 62 56 55 56 56 54 52 51 49 49 49 50 49 46 47 45 44 43 46 47 45 45 44 45 45 44 41 41 31 16 13 24 31 29 34 34 33 32 34 40 40 39
64 63 60 59 55 55 54 54 53 53 50 46 42 41 43 43 44 44 44 46 48 48 48 47 47 47 46 46 47 45 42 47 27 21 25 31 42 43 40 38 39 40 42
63 67 63 63 59 59 59 58 56 54 50 45 45 45 42 42 43 45 45 46 49 51 50 49 51 51 50 48 51 51 49 46 48 54 59 46 44 43 46 49 43 43 45
58 63 66 67 65 64 61 60 60 56 53 54 50 47 43 42 42 44 45 46 48 51 52 52 51 54 54 54 52 53 57 53 49 48 53 58 57 57 53 50 45 44 44
Wind_Direction_500mb
173 163 161 162 146 137 134 125 97 62 64 69 96 96 98 88 87 90 84 86 83 81 78 76 75 72 70 70 74 76 82 80 71 72 73 62 62 57 58 60 60 49 48
170 161 159 153 135 126 144 142 92 65 68 96 99 98 97 92 94 90 86 87 83 81 80 78 77 76 74 75 77 89 78 80 77 72 69 62 60 56 58 60 58 54 49
155 154 158 141 125 136 145 122 110 79 86 106 96 101 101 93 93 92 90 89 86 83 80 79 78 77 77 79 82 78 70 73 82 77 71 67 63 50 56 57 54 53 52
146 156 157 141 136 145 143 153 97 78 109 107 106 108 101 104 96 97 93 90 87 84 81 79 78 78 77 81 81 80 69 62 61 68 68 65 65 55 51 55 52 53 50
140 172 158 140 143 146 151 170 99 77 114 114 112 107 113 105 101 98 96 92 88 85 81 77 76 78 80 86 84 88 75 68 65 66 64 65 63 57 53 53 50 52 55
149 174 162 142 153 146 167 181 100 348 131 123 120 115 108 106 105 103 98 92 88 83 79 75 74 75 78 84 91 99 95 78 63 57 64 62 66 57 55 55 53 51 54
165 176 166 153 147 154 179 198 256 279 128 127 118 117 116 110 109 106 98 93 89 85 80 76 75 75 77 81 86 89 100 87 81 60 69 63 59 57 56 53 50 51 53
175 175 165 161 159 166 174 183 220 156 133 133 127 123 120 118 114 108 103 98 95 90 85 80 76 74 73 76 78 77 91 97 92 76 80 71 60 57 54 54 53 51 56
161 168 169 167 175 182 172 187 178 197 140 140 141 142 137 128 120 113 110 105 100 94 89 84 80 76 73 73 73 73 79 86 84 77 91 75 63 58 56 52 51 52 50
165 186 177 175 178 187 186 187 193 272 166 153 154 142 128 122 121 124 117 110 105 99 92 87 82 79 77 74 71 68 65 75 67 76 84 83 70 53 53 49 46 49 47
171 179 187 184 187 196 191 185 202 218 220 172 148 145 136 137 139 130 121 116 111 104 98 93 89 82 79 75 70 64 64 62 64 68 70 88 71 63 58 52 50 47 44
175 177 191 190 193 190 183 183 196 214 215 170 154 154 150 166 151 139 131 131 128 121 113 106 94 84 76 74 71 64 62 61 62 63 54 70 73 63 61 47 46 45 44
179 182 189 187 192 195 182 179 191 210 203 181 170 175 179 173 173 164 163 160 155 145 135 120 100 87 76 69 65 60 55 55 56 55 57 46 67 71 58 51 44 42 41
190 188 182 198 189 194 193 178 176 205 205 194 186 190 184 184 188 185 187 178 178 171 170 151 134 105 77 57 48 44 41 40 38 42 40 41 38 41 59 69 57 46 36
198 194 185 191 197 187 187 190 187 210 209 200 196 197 194 199 202 205 203 202 201 204 208 205 210 228 268 333 356 8 12 14 14 16 17 20 21 25 23 26 42 57 40
200 203 195 193 199 197 193 199 197 214 211 208 204 204 205 208 212 215 215 216 219 224 231 235 243 254 264 275 291 305 318 328 337 339 342 342 345 351 355 1 4 10 38
203 204 202 203 202 204 207 202 201 220 219 213 211 210 213 218 220 225 227 227 230 234 241 248 253 261 267 273 278 284 291 298 304 307 311 311 311 313 317 325 328 335 337
206 207 203 203 205 207 211 210 212 222 220 217 216 218 217 222 226 231 233 235 238 240 244 250 257 263 269 273 277 279 283 287 289 291 293 295 295 295 296 300 303 308 314
208 209 210 207 208 210 210 209 217 222 220 222 222 222 223 226 231 235 240 241 244 246 248 254 259 265 269 274 278 281 284 287 288 285 285 284 283 283 286 286 290 293 297
209 211 211 210 210 212 210 211 214 222 222 220 225 228 230 230 234 240 243 246 249 250 251 255 261 265 268 274 279 284 290 290 288 286 283 279 276 274 278 281 283 285 288
210 211 212 210 210 212 212 214 215 222 222 223 226 231 234 235 237 240 245 248 253 254 257 258 260 264 267 269 277 283 284 288 286 286 283 279 273 274 273 275 279 282 283
212 213 214 213 214 216 219 221 224 227 228 231 232 233 237 242 244 244 246 251 255 255 257 259 262 264 266 268 272 285 298 293 287 288 289 283 288 282 276 274 277 281 282
215 217 218 217 216 218 220 220 223 226 230 230 232 237 239 245 248 251 250 252 256 258 259 261 263 264 267 266 269 264 277 265 289 288 285 287 290 287 284 279 281 280 280
221 221 221 224 221 223 226 226 227 231 234 239 243 247 245 247 251 254 254 255 258 261 262 265 265 265 264 265 267 267 264 265 278 289 285 282 289 287 287 287 283 282 281
221 222 222 225 228 228 228 230 231 234 237 242 240 244 248 250 251 255 257 257 259 262 265 263 266 267 267 266 265 270 269 266 265 264 280 289 285 285 286 289 288 284 286
227 225 225 225 229 232 233 234 235 238 238 239 243 247 250 253 254 256 260 262 262 263 266 269 266 267 269 269 267 265 267 268 273 271 274 283 286 288 290 290 291 289 285
Wind_Speed_850mb
18 35 30 33 26 23 23 25 14 13 16 18 34 38 30 30 34 34 34 33 34 34 35 35 36 36 37 37 41 40 45 42 46 42 47 41 43 43 42 43 43 39 40
24 34 36 30 23 29 37 21 10 14 17 24 37 32 32 29 31 35 34 33 34 35 35 35 36 37 37 40 40 49 46 40 40 33 38 40 42 36 42 36 40 39 40
28 34 41 30 27 37 25 13 5 15 15 33 33 31 28 30 32 33 34 32 33 35 35 36 36 37 38 39 43 39 39 42 30 35 40 42 42 39 38 41 39 39 41
31 34 38 29 26 37 22 13 10 15 18 33 31 30 32 29 29 31 31 31 32 34 35 35 36 36 38 38 39 46 43 38 38 39 40 41 40 37 37 40 40 38 43
34 36 37 29 40 29 20 12 11 7 19 30 31 31 27 30 29 31 30 31 33 34 34 35 35 36 37 38 37 42 39 33 35 32 40 40 40 40 38 38 36 39 40
35 40 42 33 38 28 19 11 7 4 20 28 27 27 28 28 30 29 30 31 32 33 34 35 36 36 37 39 40 47 47 36 31 30 37 41 41 34 36 36 37 38 46
35 34 53 40 30 23 19 11 1 5 30 28 29 27 27 26 29 27 30 30 31 32 33 34 35 36 35 37 35 37 47 36 25 26 41 40 41 33 35 34 35 38 42
34 38 52 43 30 25 18 10 7 9 29 28 28 28 27 25 27 27 28 28 28 29 31 32 33 34 35 35 34 33 37 32 27 23 38 41 38 33 31 33 36 36 39
26 34 48 42 33 24 20 11 6 3 30 30 30 30 30 26 26 25 25 25 26 26 27 29 30 32 33 34 33 30 29 30 23 26 41 43 32 28 32 35 32 35 37
44 36 50 50 38 30 26 18 9 3 25 28 28 27 24 23 24 23 21 22 22 23 24 26 27 28 29 30 30 26 29 28 25 27 34 42 29 30 29 31 31 34 35
40 31 46 54 47 35 30 25 17 13 13 27 26 28 27 21 19 18 20 18 19 19 20 20 21 22 25 25 27 25 27 27 28 26 26 39 24 28 27 28 28 29 28
45 40 36 58 56 37 37 30 24 19 20 25 28 29 24 22 16 17 17 16 15 16 15 15 15 16 19 20 21 22 22 24 25 24 21 27 23 21 23 23 26 23 25
45 47 41 46 57 49 40 36 26 25 20 26 32 29 26 22 19 18 18 15 13 12 11 10 10 11 12 14 15 16 18 19 20 19 19 19 21 19 17 19 21 22 22
43 47 45 41 44 48 40 40 29 25 23 31 30 29 25 26 22 19 17 15 13 10 9 7 6 5 6 7 9 11 13 15 16 16 16 16 16 16 13 13 13 16 18
43 48 52 47 42 46 45 45 34 29 26 31 33 30 29 27 25 22 18 17 14 13 11 8 6 4 1 2 4 7 9 11 12 12 12 13 12 13 13 13 10 11 12
48 50 53 55 51 48 52 46 36 32 30 35 34 34 33 31 28 26 22 21 19 18 16 13 12 10 9 8 8 8 9 9 11 12 11 11 10 10 10 11 10 9 7
50 50 51 51 49 50 51 49 43 40 34 36 36 36 37 34 30 28 27 25 24 23 21 19 19 18 17 16 15 14 15 15 15 15 16 15 14 13 11 11 10 10 10
48 50 51 50 50 50 50 47 45 48 39 35 39 38 38 37 34 32 31 30 29 27 27 26 25 25 25 23 23 21 21 22 22 22 22 22 20 18 17 15 14 13 13
48 48 49 49 48 48 49 54 52 50 44 40 39 40 39 39 38 36 35 34 34 32 32 31 31 30 31 30 29 30 28 28 29 30 29 28 26 25 23 21 20 19 18
50 51 50 50 48 48 49 55 54 52 46 44 43 42 41 42 41 39 40 39 38 37 36 35 35 34 34 35 35 36 36 35 36 36 35 35 32 30 29 27 26 24 25
53 54 55 55 54 53 55 56 58 53 46 47 46 44 43 42 42 42 43 43 42 40 38 38 38 39 39 36 39 39 39 36 36 32 30 33 30 31 33 32 31 31 29
59 57 55 55 54 54 53 51 52 47 44 44 45 47 46 45 43 42 43 45 45 42 42 42 42 41 42 40 36 35 26 31 34 26 22 24 31 32 34 35 35 35 35
65 62 56 55 56 56 54 52 51 49 49 49 50 49 46 47 45 44 43 46 47 45 45 44 45 45 44 41 41 31 16 13 24 31 29 34 34 33 32 34 40 40 39
64 63 60 59 55 55 54 54 53 53 50 46 42 41 43 43 44 44 44 46 48 48 48 47 47 47 46 46 47 45 42 47 27 21 25 31 42 43 40 38 39 40 42
63 67 63 63 59 59 59 58 56 54 50 45 45 45 42 42 43 45 45 46 49 51 50 49 51 51 50 48 51 51 49 46 48 54 59 46 44 43 46 49 43 43 45
58 63 66 67 65 64 61 60 60 56 53 54 50 47 43 42 42 44 45 46 48 51 52 52 51 54 54 54 52 53 57 53 49 48 53 58 57 57 53 50 45 44 44
Wind_Direction_850mb
173 163 161 162 146 137 134 125 97 62 64 69 96 96 98 88 87 90 84 86 83 81 78 76 75 72 70 70 74 76 82 80 71 72 73 62 62 57 58 60 60 49 48
170 161 159 153 135 126 144 142 92 65 68 96 99 98 97 92 94 90 86 87 83 81 80 78 77 76 74 75 77 89 78 80 77 72 69 62 60 56 58 60 58 54 49
155 154 158 141 125 136 145 122 110 79 86 106 96 101 101 93 93 92 90 89 86 83 80 79 78 77 77 79 82 78 70 73 82 77 71 67 63 50 56 57 54 53 52
146 156 157 141 136 145 143 153 97 78 109 107 106 108 101 104 96 97 93 90 87 84 81 79 78 78 77 81 81 80 69 62 61 68 68 65 65 55 51 55 52 53 50
140 172 158 140 143 146 151 170 99 77 114 114 112 107 113 105 101 98 96 92 88 85 81 77 76 78 80 86 84 88 75 68 65 66 64 65 63 57 53 53 50 52 55
149 174 162 142 153 146 167 181 100 348 131 123 120 115 108 106 105 103 98 92 88 83 79 75 74 75 78 84 91 99 95 78 63 57 64 62 66 57 55 55 53 51 54
165 176 166 153 147 154 179 198 256 279 128 127 118 117 116 110 109 106 98 93 89 85 80 76 75 75 77 81 86 89 100 87 81 60 69 63 59 57 56 53 50 51 53
175 175 165 161 159 166 174 183 220 156 133 133 127 123 120 118 114 108 103 98 95 90 85 80 76 74 73 76 78 77 91 97 92 76 80 71 60 57 54 54 53 51 56
161 168 169 167 175 182 172 187 178 197 140 140 141 142 137 128 120 113 110 105 100 94 89 84 80 76 73 73 73 73 79 86 84 77 91 75 63 58 56 52 51 52 50
165 186 177 175 178 187 186 187 193 272 166 153 154 142 128 122 121 124 117 110 105 99 92 87 82 79 77 74 71 68 65 75 67 76 84 83 70 53 53 49 46 49 47
171 179 187 184 187 196 191 185 202 218 220 172 148 145 136 137 139 130 121 116 111 104 98 93 89 82 79 75 70 64 64 62 64 68 70 88 71 63 58 52 50 47 44
175 177 191 190 193 190 183 183 196 214 215 170 154 154 150 166 151 139 131 131 128 121 113 106 94 84 76 74 71 64 62 61 62 63 54 70 73 63 61 47 46 45 44
179 182 189 187 192 195 182 179 191 210 203 181 170 175 179 173 173 164 163 160 155 145 135 120 100 87 76 69 65 60 55 55 56 55 57 46 67 71 58 51 44 42 41
190 188 182 198 189 194 193 178 176 205 205 194 186 190 184 184 188 185 187 178 178 171 170 151 134 105 77 57 48 44 41 40 38 42 40 41 38 41 59 69 57 46 36
198 194 185 191 197 187 187 190 187 210 209 200 196 197 194 199 202 205 203 202 201 204 208 205 210 228 268 333 356 8 12 14 14 16 17 20 21 25 23 26 42 57 40
200 203 195 193 199 197 193 199 197 214 211 208 204 204 205 208 212 215 215 216 219 224 231 235 243 254 264 275 291 305 318 328 337 339 342 342 345 351 355 1 4 10 38
203 204 202 203 202 204 207 202 201 220 219 213 211 210 213 218 220 225 227 227 230 234 241 248 253 261 267 273 278 284 291 298 304 307 311 311 311 313 317 325 328 335 337
206 207 203 203 205 207 211 210 212 222 220 217 216 218 217 222 226 231 233 235 238 240 244 250 257 263 269 273 277 279 283 287 289 291 293 295 295 295 296 300 303 308 314
208 209 210 207 208 210 210 209 217 222 220 222 222 222 223 226 231 235 240 241 244 246 248 254 259 265 269 274 278 281 284 287 288 285 285 284 283 283 286 286 290 293 297
209 211 211 210 210 212 210 211 214 222 222 220 225 228 230 230 234 240 243 246 249 250 251 255 261 265 268 274 279 284 290 290 288 286 283 279 276 274 278 281 283 285 288
210 211 212 210 210 212 212 214 215 222 222 223 226 231 234 235 237 240 245 248 253 254 257 258 260 264 267 269 277 283 284 288 286 286 283 279 273 274 273 275 279 282 283
212 213 214 213 214 216 219 221 224 227 228 231 232 233 237 242 244 244 246 251 255 255 257 259 262 264 266 268 272 285 298 293 287 288 289 283 288 282 276 274 277 281 282
215 217 218 217 216 218 220 220 223 226 230 230 232 237 239 245 248 251 250 252 256 258 259 261 263 264 267 266 269 264 277 265 289 288 285 287 290 287 284 279 281 280 280
221 221 221 224 221 223 226 226 227 231 234 239 243 247 245 247 251 254 254 255 258 261 262 265 265 265 264 265 267 267 264 265 278 289 285 282 289 287 287 287 283 282 281
221 222 222 225 228 228 228 230 231 234 237 242 240 244 248 250 251 255 257 257 259 262 265 263 266 267 267 266 265 270 269 266 265 264 280 289 285 285 286 289 288 284 286
227 225 225 225 229 232 233 234 235 238 238 239 243 247 250 253 254 256 260 262 262 263 266 269 266 267 269 269 267 265 267 268 273 271 274 283 286 288 290 290 291 289 285